Regional Weather Roundup
Issued by NWS

Home | Current Version | Previous Version | Text Only | Print | Product List | Glossary Off
Versions: 1 2 3 4 5 6 7 8 9 10 11 12 13 14 15 16 17 18 19 20 21 22 23 24 25 26 27 28 29 30 31 32 33 34 35 36 37 38 39 40 41 42 43 44 45 46 47 48 49 50

000
ASUS43 KOAX 230810
RWRNE

WEATHER ROUNDUP FOR NEBRASKA
NATIONAL WEATHER SERVICE OMAHA NE
300 AM CDT TUE SEP 23 2014

NOTES: SATELLITE DATA IS BEING USED TO AUGMENT CLOUD COVER ABOVE
       12000 FEET.
       "FAIR" INDICATES FEW OR NO CLOUDS BELOW 12,000 FEET WITH NO
       SIGNIFICANT WEATHER AND/OR OBSTRUCTIONS TO VISIBILITY.

  * THESE STATIONS DO NOT REPORT WEATHER SUCH AS RAIN...SNOW OR FOG.

NEZ001>004-019>022-054>056-230900-
NEBRASKA PANHANDLE

CITY           SKY/WX    TMP DP  RH WIND       PRES   REMARKS
SCOTTSBLUFF    CLEAR     51  50  96 E7        30.01F
ALLIANCE       CLEAR     50  49  96 SE3       29.99F
CHADRON        PTCLDY    59  53  80 CALM      29.94S
KIMBALL        CLOUDY    59  50  74 SW8       30.07F
SIDNEY         MOCLDY    58  55  90 SW10      30.06S
$$

NEZ057>060-069>072-079>082-230900-
SOUTHWEST NEBRASKA

CITY           SKY/WX    TMP DP  RH WIND       PRES   REMARKS
NORTH PLATTE   CLOUDY    55  53  93 E7        30.03F
IMPERIAL       CLOUDY    58  55  90 SW5       30.04F
LEXINGTON      CLOUDY    58  56  94 SE13G20   30.06S
MCCOOK         CLOUDY    61  57  87 S10G23    30.01F
OGALLALA       MOCLDY    59  56  89 W5        30.03S
$$

NEZ005>010-023>029-035>040-094-230900-
NORTH CENTRAL NEBRASKA

CITY           SKY/WX    TMP DP  RH WIND       PRES   REMARKS
VALENTINE      CLOUDY    58  53  84 SE13      30.01F
AINSWORTH      MOCLDY    57  52  84 SE13G26   30.02F
BROKEN BOW     CLOUDY    58  53  84 SE13G22   30.06F
O`NEILL        RAIN      58  57  95 S17G25    30.09F
ORD            CLOUDY    58  52  80 SE12      30.09F
THEDFORD       MOCLDY    58  53  84 SE10G18   30.03F
$$

NEZ041-046>049-061>064-073>077-083>087-230900-
SOUTH CENTRAL NEBRASKA

CITY           SKY/WX    TMP DP  RH WIND       PRES   REMARKS
GRAND ISLAND   LGT RAIN  58  53  84 SE12G20   30.13F
AURORA         CLOUDY    59  53  80 S9        30.15F
HASTINGS       CLOUDY    59  51  75 S10       30.13F
HEBRON         LGT RAIN  61  51  70 S5        30.15S
HOLDREGE       RAIN      56  54  90 S13G22    30.09F
KEARNEY *      CLOUDY    55  52  88 SE18      30.09F
YORK           LGT RAIN  57  54  88 S9        30.17R
$$

NEZ011>018-030>034-042>045-230900-
NORTHEAST NEBRASKA

CITY           SKY/WX    TMP DP  RH WIND       PRES   REMARKS
NORFOLK        CLOUDY    60  53  77 S7        30.14S
ALBION         HVY RAIN  57  53  86 S9G18     30.14F
BLAIR          CLOUDY    62  52  69 S7        30.16F
COLUMBUS *     CLOUDY    59  52  77 S5        30.16S
FREMONT        CLOUDY    63  51  67 SE9       30.16F
TEKAMAH        CLOUDY    58  54  86 SE6       30.15F
WAYNE          CLOUDY    59  55  86 S5        30.14S
$$

NEZ050>053-065>068-078-088>093-230900-
SOUTHEAST NEBRASKA

CITY           SKY/WX    TMP DP  RH WIND       PRES   REMARKS
LINCOLN        MOCLDY    59  51  75 S6        30.17S
OMAHA EPPLEY   CLOUDY    62  52  69 S9        30.17F
BEATRICE       MOCLDY    61  51  70 SE8       30.15F
FALLS CITY     MOCLDY    55  52  89 SE6       30.18F
NEBRASKA CITY    N/A     58  48  69 S7        30.18F
PLATTSMOUTH    CLOUDY    58  52  79 SE6       30.18S
$$

NEZ044-045-051>053-067-230900-
OMAHA AREA

CITY           SKY/WX    TMP DP  RH WIND       PRES   REMARKS
OMAHA EPPLEY   CLOUDY    62  52  69 S9        30.17F
BLAIR          CLOUDY    62  52  69 S7        30.16F
FREMONT        CLOUDY    63  51  67 SE9       30.16F
MILLARD        CLOUDY    62  53  73 SE3       30.17F
OFFUTT AFB     CLOUDY    59  59  97 E6        30.17F
PLATTSMOUTH    CLOUDY    58  52  79 SE6       30.18S
WAHOO          FAIR      59  52  77 SE6       30.16F
$$


USA.gov is the U.S. government's official web portal to all federal, state and local government web resources and services.